Weather History for Covington, KY

Change the Weather History Date:

Sunday, March 24, 2013

  Actual Average Record
Temperature  
Mean Temperature 37 °F 46 °F  
Max Temperature 41 °F 56 °F 87 °F (1910)
Min Temperature 33 °F 36 °F 11 °F (1974)
Degree Days  
Heating Degree Days 28 19  
Month to date heating degree days 683 545  
Since 1 July heating degree days 4393 4372  
Cooling Degree Days 0 0  
Month to date cooling degree days 0 0  
Year to date cooling degree days 0 0  
Moisture  
Dew Point 30 °F    
Average Humidity 73    
Maximum Humidity 100    
Minimum Humidity 45    
Precipitation  
Precipitation 0.35 in 0.14 in 2.21 in (1913)
Month to date precipitation 3.65 2.97  
Year to date precipitation 9.25 8.78  
Snow  
Snow 1.00 in 0.00 in 6.70 in (1906)
Month to date snowfall 6.5 2.6  
Since 1 July snowfall 22.9 21.2  
Snow Depth 0.00 in    
Sea Level Pressure  
Sea Level Pressure 29.60 in    
Wind  
Wind Speed 12 mph (ENE)    
Max Wind Speed 26 mph    
Max Gust Speed 32 mph    
Visibility 4 miles    
Events Rain , Snow    
T = Trace of Precipitation, MM = Missing Value Source: NWS Daily Summary

Daily Weather History Graph

Daily Weather History Graph

Search for Another Location

Airport:

Trip Planner

Search our weather history database for the weather conditions in past years. The results will help you decide how hot, cold, wet, or windy it might be!

Date:

Astronomy

Mar. 24, 2013 Rise Set
Actual Time 7:35 AM EDT 7:54 PM EDT
Civil Twilight 7:08 AM EDT 8:21 PM EDT
Nautical Twilight 6:37 AM EDT 8:52 PM EDT
Astronomical Twilight 6:05 AM EDT 9:25 PM EDT
Moon 5:23 PM EDT (3/24) 5:44 AM EDT (3/24)
Length of Visible Light 13h 12m
Length of Day
12h 19m
Waxing Gibbous, 91% of the Moon is Illuminated
Mar 24
Waxing Gibbous
Mar 27
Full
Apr 3
Last Quarter
Apr 10
New
Apr 18
First Quarter

Hourly Weather History & Observations

Time (EDT) Temp. Windchill Dew Point Humidity Pressure Visibility Wind Dir Wind Speed Gust Speed Precip Events Conditions
12:52 AM 41.0 °F 33.5 °F 21.0 °F 45% 29.86 in 10.0 mi ENE 13.8 mph - N/A   Overcast
1:52 AM 39.9 °F 32.1 °F 21.9 °F 49% 29.86 in 10.0 mi ENE 13.8 mph - N/A   Overcast
2:52 AM 39.0 °F 30.6 °F 23.0 °F 53% 29.86 in 10.0 mi ENE 15.0 mph - N/A   Overcast
3:52 AM 39.0 °F 31.4 °F 24.1 °F 55% 29.86 in 10.0 mi ENE 12.7 mph - N/A   Overcast
4:52 AM 37.9 °F 28.9 °F 24.1 °F 57% 29.80 in 10.0 mi ENE 16.1 mph - N/A   Overcast
5:52 AM 37.0 °F 28.1 °F 24.1 °F 59% 29.77 in 10.0 mi NE 15.0 mph - N/A   Overcast
6:52 AM 37.0 °F 26.7 °F 24.1 °F 59% 29.73 in 9.0 mi ENE 19.6 mph - N/A   Overcast
7:52 AM 37.0 °F 29.8 °F 24.1 °F 59% 29.74 in 10.0 mi NE 10.4 mph - N/A   Overcast
8:52 AM 37.0 °F 28.5 °F 24.1 °F 59% 29.74 in 8.0 mi ENE 13.8 mph - N/A   Overcast
9:20 AM 35.6 °F 27.5 °F 26.6 °F 70% 29.72 in 3.0 mi NE 11.5 mph - 0.00 in Snow Light Snow
9:24 AM 35.6 °F 27.5 °F 26.6 °F 70% 29.71 in 2.0 mi NE 11.5 mph - 0.00 in Snow Light Snow
9:39 AM 35.6 °F 26.2 °F 28.4 °F 75% 29.70 in 1.5 mi NE 15.0 mph - 0.00 in Snow Light Snow
9:52 AM 34.0 °F 24.6 °F 30.9 °F 89% 29.70 in 2.0 mi NNE 13.8 mph - 0.00 in Snow Light Snow
10:16 AM 35.6 °F 27.5 °F 28.4 °F 75% 29.68 in 4.0 mi NE 11.5 mph - 0.00 in Snow Light Snow
10:32 AM 35.6 °F 26.6 °F 28.4 °F 75% 29.69 in 2.0 mi ENE 13.8 mph - 0.00 in Snow Light Snow
10:52 AM 34.0 °F 24.6 °F 30.9 °F 89% 29.68 in 1.0 mi ENE 13.8 mph - 0.00 in Snow Light Snow
11:16 AM 33.8 °F 23.5 °F 33.8 °F 100% 29.64 in 0.8 mi NE 16.1 mph - 0.02 in Snow Light Snow
11:42 AM 33.8 °F 25.3 °F 33.8 °F 100% 29.64 in 2.0 mi NE 11.5 mph - 0.06 in Snow Light Snow
11:52 AM 33.1 °F 23.9 °F 32.0 °F 96% 29.66 in 2.0 mi NNE 12.7 mph - 0.06 in Rain Light Rain
12:52 PM 33.8 °F 25.3 °F 32.0 °F 93% 29.61 in 3.0 mi NE 11.5 mph 21.9 mph N/A   Overcast
1:31 PM 33.8 °F 22.8 °F 33.8 °F 100% 29.59 in 2.5 mi ENE 18.4 mph - N/A   Overcast
1:52 PM 34.0 °F 25.5 °F 33.1 °F 96% 29.60 in 2.5 mi ENE 11.5 mph - 0.00 in Rain Light Rain
2:30 PM 35.6 °F 23.4 °F 35.6 °F 100% 29.50 in 2.5 mi ENE 25.3 mph - 0.02 in Rain Light Rain
2:52 PM 35.1 °F 24.5 °F 35.1 °F 100% 29.49 in 2.5 mi ENE 18.4 mph 27.6 mph 0.02 in   Overcast
3:52 PM 35.1 °F 25.9 °F 34.0 °F 96% 29.52 in 9.0 mi East 13.8 mph - N/A   Overcast
4:52 PM 35.1 °F 25.5 °F 35.1 °F 100% 29.47 in 7.0 mi ENE 15.0 mph 24.2 mph N/A   Overcast
5:46 PM 35.6 °F 26.6 °F 35.6 °F 100% 29.43 in 2.5 mi ENE 13.8 mph - 0.00 in   Light Drizzle
5:52 PM 35.1 °F 26.9 °F 35.1 °F 100% 29.45 in 2.0 mi ENE 11.5 mph 20.7 mph 0.00 in Rain Light Rain
6:03 PM 35.6 °F 27.1 °F 35.6 °F 100% 29.44 in 2.0 mi ENE 12.7 mph - 0.04 in Rain Light Ice Pellets
6:52 PM 34.0 °F 25.0 °F 34.0 °F 100% 29.42 in 2.0 mi NE 12.7 mph - 0.14 in Rain Light Rain
7:01 PM 33.8 °F 24.3 °F 33.8 °F 100% 29.41 in 2.0 mi ENE 13.8 mph - 0.01 in Rain Light Rain
7:27 PM 33.8 °F 27.7 °F 33.8 °F 100% 29.44 in 2.0 mi East 6.9 mph - 0.02 in   Light Ice Pellets
7:29 PM 33.8 °F 26.4 °F 33.8 °F 100% 29.44 in 1.5 mi East 9.2 mph - 0.02 in Snow Light Ice Pellets
7:38 PM 33.8 °F 28.6 °F 33.8 °F 100% 29.44 in 1.5 mi East 5.8 mph - 0.03 in Snow Light Snow
7:52 PM 33.1 °F 27.7 °F 33.1 °F 100% 29.45 in 1.5 mi East 5.8 mph - 0.04 in Snow Light Snow
8:02 PM 33.8 °F 27.0 °F 33.8 °F 100% 29.43 in 0.5 mi ENE 8.1 mph - 0.02 in Snow Light Snow
8:22 PM 33.8 °F 25.3 °F 33.8 °F 100% 29.41 in 0.5 mi ENE 11.5 mph - 0.04 in Snow Light Snow
8:52 PM 33.1 °F 26.9 °F 33.1 °F 100% 29.43 in 1.0 mi East 6.9 mph - 0.07 in Snow Light Snow
9:52 PM 33.1 °F 26.9 °F 33.1 °F 100% 29.43 in 1.0 mi East 6.9 mph - 0.01 in Snow Light Snow
10:52 PM 33.1 °F - 33.1 °F 100% 29.43 in 1.0 mi Calm Calm - 0.00 in   Light Drizzle
11:52 PM 33.1 °F 28.7 °F 33.1 °F 100% 29.44 in 0.2 mi NE 4.6 mph - 0.01 in   Light Drizzle